Weather History for Karlovy Vary, Czech Republic

Change the Weather History Date:

Sunday, July 7, 2013

  Actual Average (EDQM) Record (EDQM)
Temperature  
Mean Temperature 62 °F -  
Max Temperature 75 °F 65 °F 80 °F (2011)
Min Temperature 50 °F 51 °F 44 °F (2003)
Degree Days  
Heating Degree Days 2    
Growing Degree Days 12 (Base 50)    
Moisture  
Dew Point 52 °F    
Average Humidity 63    
Maximum Humidity 100    
Minimum Humidity 44    
Precipitation  
Precipitation 0.00 in - - ()
Sea Level Pressure  
Sea Level Pressure 30.42 in    
Wind  
Wind Speed 5 mph ()    
Max Wind Speed 10 mph    
Max Gust Speed -    
Visibility 6.2 miles    
Events Fog    
Averages and records for this station are not official NWS values.
T = Trace of Precipitation, MM = Missing Value Source: Averaged Metar Reports

Daily Weather History Graph

Daily Weather History Graph

Search for Another Location

Airport:

Trip Planner

Search our weather history database for the weather conditions in past years. The results will help you decide how hot, cold, wet, or windy it might be!

Date:

Astronomy

Jul. 07, 2013 Rise Set
Actual Time 5:06 AM CEST 9:19 PM CEST
Civil Twilight 4:23 AM CEST 10:02 PM CEST
Nautical Twilight 3:19 AM CEST 11:05 PM CEST
Astronomical Twilight 1:45 AM CEST 12:40 AM CEST
Moon 4:35 AM CEST (7/7) 8:23 PM CEST (7/7)
Length of Visible Light 17h 39m
Length of Day
16h 12m
Waning Crescent, 1% of the Moon is Illuminated
Jul 7
Waning Crescent
Jul 8
New
Jul 16
First Quarter
Jul 22
Full
Jul 29
Last Quarter

Hourly Weather History & Observations

Time (CEST) Temp. Dew Point Humidity Pressure Visibility Wind Dir Wind Speed Gust Speed Precip Events Conditions
12:00 AM 60.8 °F 53.6 °F 77% 30.42 in - East 5.8 mph - N/A   Clear
1:00 AM 59.0 °F 53.6 °F 82% 30.42 in - ENE 4.6 mph - N/A   Clear
2:00 AM 55.4 °F 51.8 °F 88% 30.42 in - Variable 2.3 mph - N/A   Clear
3:00 AM 53.6 °F 51.8 °F 94% 30.42 in - Variable 1.2 mph - N/A   Clear
4:00 AM 53.6 °F 51.8 °F 94% 30.42 in 6.2 mi Variable 2.3 mph - N/A Fog Shallow Fog
5:00 AM 50.0 °F 50.0 °F 100% 30.42 in 6.2 mi Variable 1.2 mph - N/A Fog Shallow Fog
6:00 AM 51.8 °F 50.0 °F 94% 30.42 in 6.2 mi Variable 1.2 mph - N/A Fog Shallow Fog
7:00 AM 55.4 °F 53.6 °F 94% 30.42 in 6.2 mi Variable 1.2 mph - N/A   Partly Cloudy
8:00 AM 62.6 °F 55.4 °F 77% 30.42 in 6.2 mi NE 5.8 mph - N/A   Partly Cloudy
8:30 AM 64.4 °F 55.4 °F 73% 30.42 in 6.2 mi NNE 5.8 mph - N/A   Scattered Clouds
9:00 AM 66.2 °F 55.4 °F 68% 30.42 in 6.2 mi NNE 6.9 mph - N/A   Partly Cloudy
9:30 AM 66.2 °F 55.4 °F 68% 30.45 in 6.2 mi NNE 8.1 mph - N/A   Partly Cloudy
10:00 AM 68.0 °F 55.4 °F 64% 30.45 in 6.2 mi NE 5.8 mph - N/A   Scattered Clouds
10:30 AM 68.0 °F 55.4 °F 64% 30.45 in 6.2 mi NNE 5.8 mph - N/A   Scattered Clouds
11:00 AM 68.0 °F 53.6 °F 60% 30.45 in 6.2 mi NE 5.8 mph - N/A   Scattered Clouds
11:30 AM 69.8 °F 51.8 °F 53% 30.45 in 6.2 mi Variable 4.6 mph - N/A   Scattered Clouds
12:00 PM 71.6 °F 50.0 °F 46% 30.42 in 6.2 mi ENE 6.9 mph - N/A   Scattered Clouds
12:30 PM 69.8 °F 51.8 °F 53% 30.45 in 6.2 mi NNE 8.1 mph - N/A   Scattered Clouds
1:00 PM 69.8 °F 51.8 °F 53% 30.42 in 6.2 mi ENE 8.1 mph - N/A   Scattered Clouds
1:30 PM 71.6 °F 55.4 °F 57% 30.42 in 6.2 mi NNE 6.9 mph - N/A   Scattered Clouds
2:00 PM 73.4 °F 51.8 °F 47% 30.42 in 6.2 mi East 8.1 mph - N/A   Scattered Clouds
2:30 PM 73.4 °F 51.8 °F 47% 30.42 in 6.2 mi NE 6.9 mph - N/A   Scattered Clouds
3:00 PM 73.4 °F 53.6 °F 50% 30.42 in 6.2 mi Variable 6.9 mph - N/A   Scattered Clouds
3:30 PM 71.6 °F 51.8 °F 50% 30.42 in 6.2 mi East 8.1 mph - N/A   Scattered Clouds
4:00 PM 75.2 °F 51.8 °F 44% 30.42 in 6.2 mi Variable 8.1 mph - N/A   Scattered Clouds
4:30 PM 73.4 °F 51.8 °F 47% 30.39 in - ENE 6.9 mph - N/A   Clear
5:00 PM 73.4 °F 51.8 °F 47% 30.39 in - ENE 9.2 mph - N/A   Clear
5:30 PM 73.4 °F 51.8 °F 47% 30.39 in - ENE 8.1 mph - N/A   Clear
6:00 PM 71.6 °F 53.6 °F 53% 30.39 in 6.2 mi East 8.1 mph - N/A   Scattered Clouds
6:30 PM 71.6 °F 53.6 °F 53% 30.39 in 6.2 mi ENE 10.4 mph - N/A   Partly Cloudy
7:00 PM 71.6 °F 51.8 °F 50% 30.39 in 6.2 mi ENE 9.2 mph - N/A   Partly Cloudy
7:30 PM 69.8 °F 51.8 °F 53% 30.39 in - ENE 9.2 mph - N/A   Clear
8:00 PM 69.8 °F 51.8 °F 53% 30.39 in - ENE 8.1 mph - N/A   Clear
8:30 PM 68.0 °F 51.8 °F 56% 30.39 in - NNE 8.1 mph - N/A   Clear
9:00 PM 66.2 °F 50.0 °F 56% 30.42 in - NE 8.1 mph - N/A   Clear
10:00 PM 60.8 °F 48.2 °F 63% 30.42 in - NE 6.9 mph - N/A   Clear
11:00 PM 59.0 °F 48.2 °F 67% 30.45 in - East 3.5 mph - N/A   Clear